Location: Unspecified
(42.9300°N, 71.1866°W)
Time: 16:17:05
(UTC-04:00)

CZ-3 Stage 3 - Visible Passes

Search period start: 27 June 2016 00:00
Search period end: 07 July 2016 00:00
Orbit: 444 x 34760 km, 30.4° (Epoch: 24 June)

Date Brightness Start Highest point End Pass type
(mag) Time Alt. Az. Time Alt. Az. Time Alt. Az.
29 Jun 5.0 01:53:03 10° W 02:01:22 22° WSW 02:01:22 22° WSW visible
29 Jun 5.6 15:10:21 10° S 22:22:42 51° S 22:33:05 10° ESE visible
02 Jul 5.0 01:44:29 10° W 01:52:52 22° WSW 01:52:52 22° WSW visible
02 Jul 5.6 14:56:36 10° S 22:14:15 52° S 22:24:40 10° ESE visible
05 Jul 5.1 01:35:55 10° W 01:44:24 22° WSW 01:44:24 22° WSW visible
05 Jul 5.6 14:43:07 10° S 22:05:49 53° S 22:16:15 10° ESE visible
